TAP052 SBBE-LPPT

Flight info

Callsign TAP052
Flight time N/A
Altitude 35000
Route BEL UZ54 SAPGO DCT ASDOT DCT TUTLO/M078F370 DCT 20N035W 25N030W DCT SORAD DCT 34N020W/M078F390 DCT MANOX/N0454F380 DCT ESUTI
Aircraft A21N/M-SDE3FGHIRWY/LB1

Departure

Time 2026-05-09 01:13
Airport Val de Cans/Júlio Cezar Ribeiro International Airport (SBBE)

Arrival

Time N/A
Airport Lisbon Humberto Delgado Airport (LPPT)
Time Latitude Longitude Altitude Speed Heading
2026-05-09 01:06 -1.38877 -48.47805 61 ft 0 kts
2026-05-09 01:09 -1.38867 -48.47805 61 ft 2 kts
2026-05-09 01:09 -1.38848 -48.47803 61 ft 3 kts
2026-05-09 01:09 -1.38819 -48.47801 61 ft 5 kts
2026-05-09 01:10 -1.38771 -48.47797 61 ft 8 kts
2026-05-09 01:10 -1.38702 -48.47792 61 ft 11 kts 355°
2026-05-09 01:10 -1.38666 -48.47858 61 ft 13 kts 268°
2026-05-09 01:10 -1.38669 -48.47960 61 ft 15 kts 269°
2026-05-09 01:11 -1.38670 -48.48077 61 ft 17 kts 269°
2026-05-09 01:11 -1.38676 -48.48198 61 ft 14 kts 254°
2026-05-09 01:11 -1.38738 -48.48275 61 ft 15 kts 226°
2026-05-09 01:11 -1.38811 -48.48352 61 ft 9 kts 233°
2026-05-09 01:12 -1.38817 -48.48428 61 ft 12 kts 274°
2026-05-09 01:12 -1.38789 -48.48474 61 ft 6 kts 14°
2026-05-09 01:12 -1.38759 -48.48447 61 ft 6 kts 45°
2026-05-09 01:12 -1.38582 -48.48267 61 ft 72 kts 46°
2026-05-09 01:13 -1.38062 -48.47742 61 ft 137 kts 45°
2026-05-09 01:13 -1.37276 -48.46941 176 ft 176 kts 46°
2026-05-09 01:13 -1.36423 -48.46069 811 ft 176 kts 45°
2026-05-09 01:13 -1.35466 -48.45311 1460 ft 179 kts 31°
2026-05-09 01:14 -1.34336 -48.44791 2018 ft 183 kts 22°
2026-05-09 01:14 -1.33122 -48.44258 2358 ft 198 kts 26°
2026-05-09 01:14 -1.31839 -48.43619 2686 ft 214 kts 27°
2026-05-09 01:14 -1.30461 -48.42908 2955 ft 234 kts 28°
2026-05-09 01:15 -1.28946 -48.42117 3273 ft 253 kts 29°
2026-05-09 01:15 -1.27340 -48.41272 3767 ft 265 kts 29°
2026-05-09 01:15 -1.25689 -48.40399 4483 ft 267 kts 30°
2026-05-09 01:15 -1.24054 -48.39533 5158 ft 269 kts 30°
2026-05-09 01:16 -1.22408 -48.38658 5788 ft 272 kts 30°
2026-05-09 01:16 -1.20721 -48.37761 6391 ft 275 kts 31°
2026-05-09 01:16 -1.19013 -48.36851 6996 ft 278 kts 31°
2026-05-09 01:17 -1.15556 -48.35010 8148 ft 285 kts 31°
2026-05-09 01:17 -1.13815 -48.34082 8719 ft 288 kts 31°
2026-05-09 01:17 -1.12040 -48.33138 9266 ft 290 kts 31°
2026-05-09 01:17 -1.10230 -48.32173 9805 ft 293 kts 31°
2026-05-09 01:18 -1.08434 -48.31215 10308 ft 297 kts 31°
2026-05-09 01:18 -1.06565 -48.30216 10572 ft 311 kts 31°
2026-05-09 01:18 -1.04609 -48.29168 10821 ft 325 kts 31°
2026-05-09 01:18 -1.02558 -48.28072 11069 ft 338 kts 30°
2026-05-09 01:19 -1.00435 -48.26946 11451 ft 347 kts 30°
2026-05-09 01:19 -0.98306 -48.25816 11988 ft 349 kts 31°
2026-05-09 01:19 -0.96147 -48.24663 12534 ft 351 kts 30°
2026-05-09 01:19 -0.93980 -48.23503 13048 ft 354 kts 30°
2026-05-09 01:20 -0.91796 -48.22345 13557 ft 356 kts 30°
2026-05-09 01:20 -0.89590 -48.21176 14057 ft 358 kts 30°
2026-05-09 01:20 -0.87399 -48.20013 14521 ft 361 kts 30°
2026-05-09 01:20 -0.85163 -48.18821 15001 ft 363 kts 30°
2026-05-09 01:21 -0.82933 -48.17633 15468 ft 365 kts 30°
2026-05-09 01:21 -0.80666 -48.16426 15928 ft 367 kts 30°
2026-05-09 01:21 -0.78423 -48.15225 16384 ft 369 kts 30°
2026-05-09 01:21 -0.76133 -48.13981 16839 ft 371 kts 30°
2026-05-09 01:22 -0.73858 -48.12741 17284 ft 374 kts 30°
2026-05-09 01:22 -0.71563 -48.11491 17728 ft 376 kts 30°
2026-05-09 01:22 -0.69255 -48.10234 18164 ft 378 kts 29°
2026-05-09 01:22 -0.66948 -48.08979 18576 ft 379 kts 29°
2026-05-09 01:23 -0.64604 -48.07705 18964 ft 382 kts 29°
2026-05-09 01:23 -0.62273 -48.06438 19315 ft 384 kts 29°
2026-05-09 01:23 -0.59909 -48.05153 19667 ft 387 kts 29°
2026-05-09 01:23 -0.57513 -48.03850 20032 ft 390 kts 30°
2026-05-09 01:24 -0.55136 -48.02558 20381 ft 392 kts 30°
2026-05-09 01:24 -0.52738 -48.01253 20710 ft 394 kts 30°
2026-05-09 01:24 -0.50311 -47.99933 21036 ft 396 kts 30°
2026-05-09 01:24 -0.47872 -47.98606 21371 ft 399 kts 30°
2026-05-09 01:25 -0.45455 -47.97292 21697 ft 401 kts 30°
2026-05-09 01:25 -0.42985 -47.95949 22021 ft 403 kts 30°
2026-05-09 01:25 -0.40520 -47.94609 22336 ft 405 kts 30°
2026-05-09 01:25 -0.38914 -47.93735 22536 ft 407 kts 30°
2026-05-09 01:26 -0.36436 -47.92388 22837 ft 409 kts 30°
2026-05-09 01:26 -0.33915 -47.91018 23133 ft 410 kts 30°
2026-05-09 01:26 -0.31394 -47.89647 23409 ft 413 kts 30°
2026-05-09 01:26 -0.28875 -47.88279 23700 ft 415 kts 30°
2026-05-09 01:27 -0.26300 -47.86878 24010 ft 417 kts 30°
2026-05-09 01:27 -0.23775 -47.85504 24305 ft 419 kts 30°
2026-05-09 01:27 -0.21169 -47.84087 24603 ft 421 kts 30°
2026-05-09 01:27 -0.18606 -47.82694 24889 ft 423 kts 30°
2026-05-09 01:28 -0.16007 -47.81281 25172 ft 425 kts 30°
2026-05-09 01:28 -0.13402 -47.79865 25452 ft 427 kts 30°
2026-05-09 01:28 -0.10754 -47.78425 25734 ft 429 kts 30°
2026-05-09 01:28 -0.08138 -47.77004 26006 ft 431 kts 30°
2026-05-09 01:29 -0.05489 -47.75563 26270 ft 433 kts 30°
2026-05-09 01:29 -0.02840 -47.74124 26529 ft 434 kts 30°
2026-05-09 01:29 -0.00175 -47.72675 26785 ft 436 kts 30°
2026-05-09 01:29 0.02491 -47.71225 27035 ft 438 kts 30°
2026-05-09 01:30 0.05163 -47.69773 27308 ft 439 kts 30°
2026-05-09 01:30 0.07862 -47.68306 27590 ft 439 kts 30°
2026-05-09 01:30 0.10556 -47.66841 27837 ft 441 kts 30°
2026-05-09 01:30 0.13249 -47.65377 28082 ft 443 kts 30°
2026-05-09 01:31 0.15975 -47.63895 28330 ft 444 kts 30°
2026-05-09 01:31 0.18706 -47.62410 28577 ft 446 kts 29°
2026-05-09 01:31 0.21444 -47.60921 28823 ft 448 kts 29°
2026-05-09 01:31 0.24184 -47.59431 29089 ft 450 kts 28°
2026-05-09 01:32 0.26974 -47.57918 29337 ft 453 kts 30°
2026-05-09 01:32 0.29747 -47.56407 29589 ft 454 kts 30°
2026-05-09 01:32 0.32493 -47.54913 29876 ft 454 kts 28°
2026-05-09 01:32 0.35282 -47.53399 30241 ft 453 kts 27°
2026-05-09 01:33 0.38027 -47.51904 30637 ft 450 kts 29°
2026-05-09 01:33 0.40805 -47.50395 30973 ft 449 kts 29°
2026-05-09 01:33 0.43545 -47.48907 31271 ft 449 kts 29°
2026-05-09 01:33 0.46312 -47.47403 31581 ft 449 kts 29°
2026-05-09 01:34 0.49055 -47.45911 31910 ft 447 kts 29°
2026-05-09 01:34 0.51790 -47.44424 32220 ft 447 kts 29°
2026-05-09 01:34 0.54498 -47.42955 32533 ft 446 kts 29°
2026-05-09 01:34 0.57237 -47.41468 32840 ft 445 kts 29°
2026-05-09 01:35 0.59966 -47.39985 33139 ft 444 kts 29°
2026-05-09 01:35 0.62662 -47.38520 33418 ft 444 kts 29°
2026-05-09 01:35 0.65372 -47.37047 33665 ft 445 kts 29°
2026-05-09 01:35 0.68123 -47.35551 33890 ft 446 kts 29°
2026-05-09 01:36 0.70842 -47.34072 34095 ft 447 kts 29°
2026-05-09 01:36 0.73568 -47.32590 34293 ft 447 kts 29°
2026-05-09 01:36 0.76316 -47.31096 34493 ft 448 kts 29°
2026-05-09 01:36 0.79073 -47.29596 34683 ft 449 kts 28°
2026-05-09 01:37 0.81822 -47.28101 34855 ft 449 kts 28°
2026-05-09 01:37 0.84576 -47.26603 34986 ft 451 kts 28°
2026-05-09 01:37 0.90089 -47.23605 35026 ft 451 kts 28°
2026-05-09 01:38 0.95602 -47.20605 35011 ft 450 kts 28°
2026-05-09 01:38 1.01133 -47.17597 34999 ft 450 kts 28°
2026-05-09 01:39 1.06619 -47.14614 34971 ft 450 kts 28°
2026-05-09 01:39 1.12160 -47.11600 34966 ft 450 kts 28°
2026-05-09 01:40 1.17656 -47.08609 34972 ft 450 kts 28°
2026-05-09 01:40 1.23179 -47.05605 34974 ft 450 kts 28°
2026-05-09 01:41 1.28657 -47.02628 34976 ft 450 kts 28°
2026-05-09 01:41 1.34171 -46.99631 34977 ft 450 kts 28°
2026-05-09 01:42 1.39704 -46.96623 34976 ft 450 kts 28°
2026-05-09 01:42 1.45188 -46.93641 34976 ft 450 kts 28°
2026-05-09 01:43 1.50706 -46.90637 34975 ft 450 kts 28°
2026-05-09 01:43 1.56225 -46.87633 34975 ft 450 kts 28°
2026-05-09 01:44 1.61721 -46.84645 34976 ft 450 kts 28°
2026-05-09 01:44 1.67251 -46.81637 34976 ft 450 kts 28°
2026-05-09 01:45 1.72751 -46.78645 34976 ft 450 kts 28°
2026-05-09 01:45 1.78287 -46.75634 34976 ft 450 kts 28°
2026-05-09 01:46 1.83801 -46.72633 34975 ft 450 kts 28°
2026-05-09 01:46 1.89316 -46.69632 34973 ft 450 kts 28°
2026-05-09 01:47 1.94826 -46.66633 34972 ft 450 kts 28°
2026-05-09 01:47 2.00335 -46.63634 34971 ft 450 kts 28°
2026-05-09 01:48 2.05838 -46.60639 34971 ft 450 kts 28°
2026-05-09 01:48 2.11327 -46.57653 34970 ft 450 kts 28°
2026-05-09 01:49 2.16831 -46.54656 34968 ft 451 kts 28°
2026-05-09 01:49 2.22359 -46.51646 34969 ft 451 kts 28°
2026-05-09 01:50 2.27893 -46.48632 34971 ft 452 kts 28°
2026-05-09 01:50 2.33421 -46.45622 34971 ft 452 kts 28°
2026-05-09 01:51 2.38948 -46.42610 34971 ft 452 kts 28°
2026-05-09 01:51 2.44470 -46.39602 34969 ft 451 kts 28°
2026-05-09 01:52 2.49982 -46.36596 34970 ft 451 kts 28°
2026-05-09 01:52 2.55542 -46.33566 34970 ft 451 kts 28°
2026-05-09 01:53 2.61041 -46.30570 34971 ft 451 kts 28°
2026-05-09 01:53 2.66558 -46.27562 34968 ft 451 kts 28°
2026-05-09 01:54 2.72104 -46.24542 34967 ft 451 kts 27°
2026-05-09 01:54 2.77600 -46.21546 34972 ft 451 kts 29°
2026-05-09 01:55 2.83165 -46.18516 34962 ft 451 kts 29°
2026-05-09 01:55 2.88668 -46.15516 34970 ft 451 kts 28°
2026-05-09 01:56 2.94167 -46.12513 34969 ft 452 kts 28°
2026-05-09 01:56 2.99716 -46.09486 34970 ft 452 kts 28°
2026-05-09 01:57 3.05261 -46.06460 34971 ft 453 kts 28°
2026-05-09 01:57 3.10802 -46.03440 34970 ft 453 kts 28°
2026-05-09 01:58 3.16368 -46.00405 34971 ft 453 kts 28°
2026-05-09 01:58 3.21928 -45.97371 34970 ft 453 kts 28°
2026-05-09 01:59 3.27479 -45.94343 34970 ft 454 kts 28°
2026-05-09 01:59 3.33018 -45.91322 34970 ft 454 kts 28°
2026-05-09 02:00 3.38563 -45.88296 34971 ft 454 kts 28°
2026-05-09 02:00 3.44137 -45.85255 34971 ft 454 kts 28°
2026-05-09 02:01 3.49694 -45.82220 34971 ft 455 kts 28°
2026-05-09 02:01 3.55234 -45.79196 34971 ft 455 kts 28°
2026-05-09 02:02 3.60817 -45.76147 34971 ft 456 kts 28°
2026-05-09 02:02 3.66392 -45.73101 34971 ft 456 kts 28°
2026-05-09 02:03 3.71994 -45.70042 34972 ft 456 kts 28°
2026-05-09 02:03 3.77552 -45.67007 34972 ft 457 kts 28°
2026-05-09 02:04 3.83128 -45.63961 34972 ft 457 kts 28°
2026-05-09 02:04 3.88711 -45.60912 34972 ft 457 kts 28°
2026-05-09 02:05 3.94325 -45.57845 34972 ft 456 kts 28°
2026-05-09 02:05 3.99909 -45.54794 34972 ft 457 kts 28°
2026-05-09 02:06 4.05473 -45.51752 34970 ft 457 kts 28°
2026-05-09 02:07 4.13838 -45.47179 34966 ft 457 kts 28°
2026-05-09 02:07 4.19454 -45.44107 34965 ft 457 kts 27°
2026-05-09 02:08 4.25043 -45.41051 34964 ft 458 kts 27°
2026-05-09 02:08 4.30660 -45.37978 34964 ft 458 kts 27°
2026-05-09 02:09 4.36251 -45.34920 34966 ft 457 kts 27°
2026-05-09 02:09 4.41825 -45.31870 34969 ft 457 kts 27°
2026-05-09 02:10 4.47408 -45.28814 34974 ft 457 kts 27°
2026-05-09 02:10 4.53013 -45.25746 34976 ft 457 kts 27°
2026-05-09 02:11 4.58588 -45.22692 34976 ft 458 kts 27°
2026-05-09 02:11 4.64193 -45.19622 34975 ft 458 kts 27°
2026-05-09 02:12 4.69811 -45.16544 34975 ft 458 kts 27°
2026-05-09 02:12 4.75401 -45.13483 34975 ft 458 kts 27°
2026-05-09 02:13 4.80979 -45.10426 34975 ft 458 kts 27°
2026-05-09 02:13 4.86581 -45.07356 34975 ft 458 kts 27°
2026-05-09 02:14 4.92189 -45.04283 34975 ft 459 kts 27°
2026-05-09 02:14 4.97799 -45.01208 34976 ft 459 kts 27°
2026-05-09 02:15 5.03382 -44.98080 34976 ft 459 kts 29°
2026-05-09 02:15 5.07128 -44.95900 34976 ft 459 kts 29°